www.pogodaiklimat.ru
ПОГОДА в Кигали
Время
(UTC), дата
13 21.11
14 21.11
15 21.11
16 21.11
17 21.11
18 21.11
19 21.11
20 21.11
21 21.11
22 21.11
23 21.11
00 22.11
01 22.11
02 22.11
03 22.11
04 22.11
05 22.11
06 22.11
07 22.11
08 22.11
09 22.11
10 22.11
11 22.11
12 22.11
13 22.11
14 22.11
15 22.11
16 22.11
17 22.11
18 22.11
19 22.11
20 22.11
21 22.11
22 22.11
23 22.11
00 23.11
01 23.11
02 23.11
03 23.11
04 23.11
05 23.11
06 23.11
07 23.11
08 23.11
09 23.11
10 23.11
11 23.11
12 23.11
13 23.11
14 23.11
15 23.11
16 23.11
17 23.11
18 23.11
19 23.11
20 23.11
21 23.11
22 23.11
23 23.11
00 24.11
01 24.11
02 24.11
03 24.11
04 24.11
05 24.11
06 24.11
07 24.11
08 24.11
09 24.11
10 24.11
11 24.11
12 24.11
13 24.11
14 24.11
15 24.11
16 24.11
17 24.11
18 24.11
19 24.11
20 24.11
21 24.11
22 24.11
23 24.11
00 25.11
01 25.11
02 25.11
03 25.11
04 25.11
05 25.11
06 25.11
07 25.11
08 25.11
09 25.11
10 25.11
11 25.11
12 25.11
13 25.11
14 25.11
15 25.11
16 25.11
17 25.11
18 25.11
19 25.11
20 25.11
21 25.11
22 25.11
23 25.11
00 26.11
01 26.11
02 26.11
03 26.11
04 26.11
05 26.11
06 26.11
09 26.11
11 26.11
12 26.11
13 26.11
14 26.11
15 26.11
16 26.11
17 26.11
18 26.11
19 26.11
20 26.11
21 26.11
22 26.11
23 26.11
00 27.11
01 27.11
02 27.11
03 27.11
04 27.11
05 27.11
06 27.11
07 27.11
08 27.11
09 27.11
10 27.11
11 27.11
12 27.11
13 27.11
14 27.11
15 27.11
16 27.11
17 27.11
18 27.11
19 27.11
20 27.11
21 27.11
22 27.11
23 27.11
00 28.11
01 28.11
03 28.11
04 28.11
05 28.11
06 28.11
07 28.11
08 28.11
09 28.11
10 28.11
11 28.11
12 28.11
13 28.11
Ветер
(напр.,м/с)
Видим. Явления Облачность Т
(С)
Тd
(С)
f
(%)
Тe
(С)
Тes
(С)
Комфортность P
(гПа)
Po
(гПа)
Тmin
(С)
Tmax
(С)
R
(мм)
R24
(мм)
S
(см)
С 9 10 км гроза, ливневой дождь 8/8 660 м
[Cb]
+20.0 +16.0 78 +22 +22 комфорт 1017.0 854.8
С 4 10 км 5/5 660 м +21.0 +16.0 73 +25 +26 комфорт 1016.0 854.5
СЗ 5 10 км {гроза, дождь} 9/6 600 м
[Cu Sc Ac cuf]
+20.2 +15.3 73 +23 +23 комфорт 1016.0 849.0 +26.8 0.0
В 2 10 км 8/5 750 м
[Ac]
+20.0 +15.0 73 +23 +23 комфорт 1018.0 855.6
ЮВ 2 10 км 5/5 750 м
[Ac]
+19.0 +16.0 83 +21 +21 комфорт 1019.0 856.0
ЮЗ 2 10 км 8/5 750 м
[Ac]
+19.0 +16.0 83 +21 +21 комфорт 1020.0 856.8
ЮЗ 2 10 км 8/5 300 м
[Ac]
+20.0 +16.0 78 +23 +23 комфорт 1020.0 857.3
штиль 0 10 км 8/8 690 м
[Ac]
+19.0 +16.0 83 +20 +20 1020.0 856.8
СЗ 2 10 км 9/6 600 м
[Cb calv Ac cuf]
+19.9 +16.4 80 +23 +23 комфорт 1020.0 852.9
С 2 10 км 5/5 750 м
[Ac]
+18.0 +16.0 88 +19 +19 1019.0 855.4
С 2 10 км 5/5 750 м
[Ac]
+18.0 +16.0 88 +19 +19 1019.0 855.4
ЮЗ 2 10 км 5/5 750 м
[Ac]
+18.0 +17.0 94 +19 +19 1018.0 854.7
штиль 0 10 км 5/5 750 м
[Ac]
+17.0 +17.0 100 +17 +17 1018.0 854.1
С 1 10 км 5/5 750 м
[Ac]
+17.0 +16.0 94 +18 +18 1018.0 854.1
СВ 2 9000 м 5/5 750 м
[Ac]
+17.0 +16.0 94 +17 +17 1018.0 854.1
С 1 6000 м 5/2 780 м
[Ci]
+16.0 +16.0 100 +17 +17 1019.0 854.4
штиль 0 7000 м 5/2 450 м
[Ci]
+18.0 +17.0 94 +18 +19 1020.0 856.3
штиль 0 8000 м 5/0 300 м
[Ac cast]
+19.8 +16.7 82 +22 +26 комфорт 1021.0 853.1 +16.0 +26.8 0.0
В 3 8000 м 5/5 690 м
[Ac]
+21.0 +17.0 78 +25 +29 комфорт 1022.0 859.6
нст 2 10 км 5/2 690 м
[Ci]
+23.0 1022.0 859.9
СВ 6 10 км 9/4 700 м
[Cu med, cong Ac trans]
+25.3 +16.3 57 +29 +31 душно 1021.0 852.8
СВ 6 10 км 8/8 690 м
[Ac]
+25.0 +17.0 61 +29 +30 душно 1020.0 859.9
СВ 6 10 км 8/8 690 м +25.0 +17.0 61 +29 +30 душно 1019.0 859.1
В 8 10 км слаб. дождь 10/6 700 м
[Cb cap Ac trans]
+19.9 +17.9 88 +22 +23 комфорт 1019.0 851.2 0.4
С 4 10 км 5/2 750 м
[Ac]
+22.0 +17.0 73 +26 +31 душно 1017.0 855.9
нст 1 10 км 5/2 750 м
[Ac]
+24.0 +16.0 61 +27 +31 жарко 1017.0 856.8
нст 1 10 км {дождь} 8/3 750 м
[Cu med, cong Ac trans Ci sp]
+24.0 +17.0 65 +28 +29 душно 1017.0 856.9 +25.3 0.0
ЮВ 3 10 км 5/2 750 м
[Ci]
+21.0 +17.0 78 +25 +25 комфорт 1018.0 856.2
Ю 1 10 км 5/2 750 м
[Ac]
+21.0 +18.0 83 +26 +26 душно 1019.0 857.1
Ю 2 10 км 8/2 750 м
[Ac]
+20.0 +18.0 88 +24 +24 комфорт 1020.0 857.5
штиль 0 10 км 8/5 750 м
[Ac]
+20.0 +18.0 88 +23 +23 комфорт 1021.0 858.3
СЗ 2 10 км 8/5 780 м
[Ac]
+20.0 +18.0 88 +24 +24 комфорт 1021.0 858.3
СВ 2 10 км 8/5 780 м
[Ac]
+19.0 +18.0 94 +21 +21 комфорт 1021.0 857.8
СЗ 2 10 км 5/2 780 м
[Ac]
+19.0 +18.0 94 +21 +21 комфорт 1020.0 856.9
СЗ 2 9000 м 5/2 780 м
[Ac]
+18.0 +17.0 94 +19 +19 1019.0 855.5
нст 1 10 км 5/2 780 м
[Ac]
+18.0 +17.0 94 +19 +19 1019.0 855.5
штиль 0 7000 м 8/5 780 м
[Ac]
+18.0 +17.0 94 +18 +18 1019.0 855.5
С 1 8000 м 8/5 780 м
[Ac]
+17.0 +17.0 100 +18 +18 1020.0 855.8
СВ 1 7000 м дымка 5/5 780 м
[Ac]
+17.0 +17.0 100 +18 +18 1020.0 855.8
нст 1 5000 м дымка 5/2 690 м
[Ac]
+17.0 +17.0 100 +18 +18 1021.0 856.7
Ю 2 5000 м дымка 5/2 300 м
[Ac]
+18.0 +17.0 94 +19 +19 1021.0 857.2
ЮВ 2 7000 м 8/1 600 м
[Cu Sc As trans Ci sp]
+20.0 +18.0 88 +24 +26 комфорт 1023.0 860.0 +17.5 +25.3 0.4
ЮВ 4 8000 м 5/5 540 м
[Ci]
+20.0 +18.0 88 +23 +26 комфорт 1023.0 860.0
ЮВ 2 10 км 5/5 600 м
[Ci]
+22.0 +19.0 83 +27 +35 душно 1022.0 860.2
Ю 5 10 км 5/5 600 м
[Cu Sc As op]
+24.6 +17.0 63 +28 +33 душно 1021.0 853.0
ЮВ 4 10 км 8/8 750 м +25.0 +17.0 61 +29 +31 душно 1020.0 859.9
ЮВ 3 10 км 8/8 750 м +27.0 +17.0 54 +31 +34 душно 1018.0 859.2
Ю 8 10 км 8/8 700 м
[Cb calv As op]
+26.5 +16.6 55 +30 +31 душно 1017.0 849.9
Ю 3 10 км 5/5 690 м +27.0 +17.0 54 +31 +35 душно 1016.0 857.5
В 3 10 км гроза без осадков 8/8 690 м
[Cb]
+25.0 +19.0 69 +30 +31 душно 1017.0 857.5
СВ 3 10 км в посл. час гроза {ливн. дождь} 6/5 600 м
[Cb cap Ac cuf Cs]
+24.0 +17.0 65 +28 +28 душно 1017.0 856.9 +26.9 1
С 2 10 км 8/8 690 м +23.0 +18.0 73 +28 +28 душно 1018.0 857.3
СЗ 3 10 км 5/5 690 м +23.0 +18.0 73 +28 +28 душно 1018.0 857.3
СЗ 4 10 км 5/5 750 м
[Ac]
+22.0 +18.0 78 +27 +27 душно 1019.0 857.6
СЗ 2 10 км 5/5 750 м
[Ac]
+22.0 +17.0 73 +26 +26 душно 1020.0 858.4
С 4 10 км 5/5 750 м
[Ac]
+22.0 +17.0 73 +26 +26 душно 1020.0 858.4
СЗ 3 10 км 5/5 750 м
[Ac]
+21.0 +17.0 78 +25 +25 комфорт 1020.0 857.9
СЗ 4 10 км 5/2 750 м
[Ac]
+21.0 +17.0 78 +25 +25 комфорт 1020.0 857.9
СЗ 3 10 км 5/2 750 м
[Ac]
+20.0 +17.0 83 +23 +23 комфорт 1018.0 855.7
СЗ 2 10 км 5/2 750 м
[Ac]
+19.0 +17.0 88 +21 +21 комфорт 1018.0 855.2
З 3 10 км 5/5 750 м
[Ac]
+19.0 +17.0 88 +21 +21 комфорт 1018.0 855.2
С 2 10 км 5/5 750 м
[Ac]
+18.0 +17.0 94 +19 +19 1018.0 854.7
З 4 10 км 9/6 600 м
[Cb calv Ac cuf]
+18.7 +16.5 87 +20 +20 1018.0 850.7
СВ 3 10 км 8/8 660 м +18.0 +17.0 94 +18 +18 1019.0 855.5
С 4 10 км слаб. дождь 8/8 660 м
[Ns]
+19.0 +16.0 83 +20 +21 1020.0 856.8
СВ 9 5000 м гроза, ливневой дождь 10/6 600 м
[Cb calv Ac und Cs]
+26.9 +18.1 59 +16 +16 1022.0 854.2 +18.1 +26.9 10
С 7 10 км гроза, ливневой дождь 8/8 630 м
[Ac Cb]
+17.0 +16.0 94 +16 +16 1022.0 857.4
СЗ 5 10 км 8/5 660 м
[Ac]
+20.0 +17.0 83 +23 +25 комфорт 1021.0 858.2
380 4 10 км слаб. дождь 10/8 660 м
[Cb cap Ac trans]
+19.4 +16.5 83 +20 +23 1021.0 853.2 0.4
СЗ 3 10 км 8/5 690 м
[Ac]
+19.0 +17.0 88 +21 +26 комфорт 1020.0 856.9
СЗ 3 10 км 8/5 690 м
[Ac]
+20.0 +17.0 83 +23 +28 комфорт 1019.0 856.5
штиль 0 10 км {дождь} 9/4 700 м
[Cu med, cong Ac trans]
+22.4 +16.5 69 +27 +33 душно 1018.0 850.6 13
ЮЗ 2 10 км 5/5 690 м
[Ac]
+23.0 +17.0 69 +28 +33 душно 1017.0 856.4
ЮЗ 3 10 км 5/2 750 м
[Ac]
+23.0 +18.0 73 +28 +31 душно 1017.0 856.5
Ю 3 10 км 8/4 600 м
[Cb calv Ac cuf]
+21.0 +18.0 83 +26 +26 душно 1017.0 855.4 +23.3
Ю 3 10 км 5/5 750 м
[Ac]
+21.0 +18.0 83 +26 +26 душно 1018.0 856.3
Ю 3 10 км 5/5 750 м
[Ac]
+21.0 +17.0 78 +25 +25 комфорт 1019.0 857.1
Ю 2 10 км 5/5 750 м
[Ac]
+20.0 +18.0 88 +24 +24 комфорт 1020.0 857.5
СВ 2 10 км 8/5 750 м
[Ac]
+19.0 +18.0 94 +21 +21 комфорт 1021.0 857.8
С 2 10 км 8/5 720 м
[Ac]
+19.0 +18.0 94 +21 +21 комфорт 1021.0 857.8
З 2 10 км 5/2 720 м
[Ac]
+19.0 +18.0 94 +21 +21 комфорт 1020.0 856.9
нст 1 9000 м 5/2 720 м
[Ac]
+18.0 +18.0 100 +19 +19 1020.0 856.4
нст 1 8000 м 5/5 720 м
[Ac]
+18.0 +18.0 100 +19 +19 1019.0 855.6 0.0
Ю 2 800 м туман ?/? +18.0 +18.0 100 +19 +19 1019.0 879.4
ЮЗ 2 3000 м дымка 8/8 90 м
[St]
+18.0 +18.0 100 +19 +19 1019.0 855.6
нст 1 8000 м 8/8 450 м +18.0 +18.0 100 +19 +19 1019.0 855.6
СЗ 2 8000 м слаб. дождь 8/8 600 м
[Ac Ns]
+18.0 +18.0 100 +19 +19 1020.0 764.9
СЗ 6 7000 м 8/5 690 м
[Ac]
+18.0 +18.0 100 +17 +17 1020.0 856.4
Ю 2 6000 м 8/8 600 м
[Ac]
+19.0 +17.0 88 +21 +21 комфорт 1021.0 857.7
штиль 0 8000 м 10/6 600 м
[Cb calv Ac und Cc]
+23.3 +17.8 71 +29 +30 душно 1022.0 855.7 +17.8 +23.3 4
С 2 10 км слаб. дождь 8/8 600 м
[Ac Ns]
+19.0 +17.0 88 +21 +23 комфорт 1022.0 858.5
С 2 10 км 8/8 630 м
[Ac]
+19.0 +16.0 83 +21 +24 комфорт 1023.0 859.3
ЮВ 3 10 км {дождь} 10/6 630 м
[Cu med, cong Ac trans]
+20.0 +17.8 100 +20 +22 1022.0 778.4 0.6
штиль 0 10 км 8/8 660 м
[Ac]
+21.0 +16.0 73 +24 +29 комфорт 1021.0 858.7
нст 1 10 км 8/8 690 м
[Ac]
+21.0 +16.0 73 +26 +30 душно 1020.0 857.8
В 3 1000 м гроза, ливневой дождь 10/8 630 м
[Cb cap Ac trans]
+18.1 +17.5 96 +17 +19 1020.0 852.1 4
СВ 2 10 км гроза, ливневой дождь 8/8 630 м
[Ac Cb]
+17.0 +15.0 88 +17 +19 1020.0 855.7
СЗ 4 10 км слаб. дождь 8/5 690 м
[Ac Ns]
+19.0 +16.0 83 +20 +22 1019.0 856.0
С 7 10 км в посл. час дождь 8/4 600 м
[Cb calv Ac cuf]
+18.6 +16.2 83 +20 +21 1019.0 851.3 +20.9 6
В 2 10 км 5/5 690 м
[Ac]
+18.0 +16.0 88 +19 +19 1019.0 855.4
нст 1 10 км 5/5 690 м
[Ac]
+18.0 +16.0 88 +19 +19 1020.0 856.3
Ю 2 10 км 5/5 690 м
[Ac]
+17.0 +17.0 100 +17 +17 1021.0 856.7
Ю 1 10 км 8/8 750 м
[Ac]
+17.0 +17.0 100 +18 +18 1021.0 856.7
СВ 2 10 км 8/8 750 м
[Ac]
+17.0 +17.0 100 +17 +17 1021.0 856.7
СВ 1 10 км 8/8 750 м
[Ac]
+17.0 +17.0 100 +18 +18 1021.0 856.7
СЗ 2 9000 м 8/8 750 м
[Ac]
+17.0 +17.0 100 +17 +17 1019.0 855.0
З 1 6000 м 5/5 300 м +17.0 +17.0 100 +18 +18 1019.0 855.0
штиль 0 4000 м дымка 5/5 240 м
[St]
+16.0 +16.0 100 +16 +16 1018.0 853.5
нст 1 400 м туман ?/? +16.0 +16.0 100 +17 +17 1018.0 853.5
С 3 н/о туман ?/? +16.0 +16.0 100 +15 +15 1018.0 853.5
З 2 400 м туман ?/? +16.0 +16.0 100 +16 +16 1019.0 854.4
нст 1 н/о туман ясно +16.0 +16.0 100 +17 +17 1020.0 855.2
Ю 2 300 м туман ?/? +16.0 +16.0 100 +16 +16 1021.0 856.1
штиль 0 800 м туман 10/6 200 м
[Cu Sc As op Ci sp]
+16.1 +15.4 96 +16 +16 853.6 +15.3 +23.3 21
ЮВ 3 10 км 6/4 600 м
[Cu Sc As op Ci sp]
+21.5 +16.7 74 +25 +33 комфорт 853.0
нст 2 10 км 5/5 750 м +25.0 +16.0 57 +28 +37 жарко 1018.0 858.2
В 7 1000 м 8/5 200 м
[Cu Sc As op Cs]
+25.2 +17.2 61 +29 +30 душно 1017.0 850.4
ЮВ 2 10 км 5/5 750 м +26.0 +18.0 61 +30 +35 душно 1017.0 858.0
Ю 3 10 км 5/5 690 м +25.0 +16.0 57 +28 +30 жарко 1016.0 856.5
ЮВ 4 10 км 8/4 600 м
[Cu Sc As op Cs]
+25.7 +16.1 55 +29 +29 душно 1016.0 848.8 +25.7
Ю 2 10 км 5/5 690 м +24.0 +16.0 61 +27 +27 жарко 1016.0 856.0
нст 1 10 км 5/5 690 м +23.0 +17.0 69 +28 +28 душно 1017.0 856.4
Ю 5 10 км 9/6 600 м
[Cu Sc As op Cs]
+25.7 +16.0 55 +29 +29 душно 1019.0 851.1 +25.7
С 2 10 км 8/5 750 м
[Ac]
+21.0 +16.0 73 +25 +25 комфорт 1020.0 857.8
СЗ 2 10 км 5/5 780 м
[Ac]
+21.0 +16.0 73 +25 +25 комфорт 1020.0 857.8
СЗ 5 10 км 8/4 600 м
[Cb calv Ac cuf]
+20.0 +16.1 78 +22 +22 комфорт 1020.0 852.1
С 2 10 км 5/2 780 м
[Ac]
+20.0 +16.0 78 +23 +23 комфорт 1019.0 856.5
СЗ 2 10 км 5/2 780 м
[Ac]
+19.0 +17.0 88 +21 +21 комфорт 1018.0 855.2
ЮЗ 2 10 км 5/5 780 м
[Ac]
+18.0 +17.0 94 +19 +19 1018.0 854.7
З 2 10 км 5/5 780 м
[Ac]
+18.0 +16.0 88 +19 +19 1017.0 853.8
нст 1 10 км 5/5 780 м
[Ac]
+17.0 +16.0 94 +18 +18 1018.0 854.1
СВ 4 10 км 6/4 600 м
[Cb calv Ac cuf]
+16.7 +15.7 94 +16 +16 1018.0 851.0
С 2 10 км 5/5 780 м +17.0 +16.0 94 +17 +17 1019.0 854.9
нст 1 10 км 8/8 690 м +17.0 +16.0 94 +18 +18 1020.0 855.8
В 3 10 км 8/6 600 м
[Cu Sc As op]
+25.7 +16.7 58 +29 +30 душно 1022.0 853.5 +16.7 +25.7
СВ 5 10 км 8/8 630 м
[Ac]
+21.0 +17.0 78 +25 +26 комфорт 1022.0 859.6
СВ 2 10 км 8/8 690 м
[Ac]
+22.0 +16.0 69 +26 +29 душно 1021.0 859.2
СВ 2 10 км 9/4 700 м
[Cu med, cong Ac trans]
+23.4 +16.1 64 +28 +34 душно 1020.0 852.6
ЮВ 2 10 км 8/8 +24.0 +16.0 61 +27 +31 жарко 1019.0 858.5
нст 2 10 км 5/5 690 м +26.0 +16.0 54 +29 +38 душно 1018.0 858.7
Ю 3 10 км 8/4 600 м
[Cu Sc As op Cs]
+26.0 +16.0 54 +29 +35 душно 1017.0 857.8
ЮВ 3 10 км 5/5 690 м +26.0 +16.0 54 +29 +33 душно 1016.0 857.0
Ю 3 10 км 5/5 690 м +25.0 +16.0 57 +28 +30 жарко 1016.0 856.5
ЮВ 3 12 км 6/5 700 м
[Cb cap Ac trans Ci sp]
+26.0 +15.0 51 +29 +29 душно 1016.0 856.9 +27.1
В 4 10 км 5/2 690 м
[Ac]
+23.0 +16.0 65 +27 +27 душно 1017.0 856.3
В 3 10 км 5/5 750 м
[Ac]
+23.0 +16.0 65 +27 +27 душно 1018.0 857.2
В 2 10 км 5/2 750 м
[Ac]
+22.0 +16.0 69 +26 +26 душно 1019.0 857.5
С 2 10 км 5/2 750 м
[Ac]
+22.0 +17.0 73 +26 +26 душно 1020.0 858.4
С 2 10 км 5/2 750 м
[Ac]
+22.0 +16.0 69 +26 +26 душно 1019.0 857.5
СЗ 2 10 км 5/2 750 м
[Ac]
+21.0 +16.0 73 +25 +25 комфорт 1019.0 857.0
СЗ 3 10 км 5/2 780 м
[Ac]
+20.0 +16.0 78 +23 +23 комфорт 1019.0 856.5
нст 1 10 км 5/2 780 м
[Ac]
+19.0 +16.0 83 +21 +21 комфорт 1018.0 855.1
ЮЗ 2 10 км 5/5 780 м
[Ac]
+18.0 +17.0 94 +19 +19 1018.0 854.7
СВ 2 10 км 5/5 780 м
[Ac]
+17.0 +17.0 100 +17 +17 1018.0 854.1
С 2 9000 м 5/5 780 м +17.0 +17.0 100 +17 +17 1018.0 854.1
С 3 9000 м 5/5 750 м +17.0 +16.0 94 +17 +17 1019.0 854.9
СЗ 2 10 км 5/5 750 м +18.0 +16.0 88 +19 +19 1020.0 856.3
ЮВ 4 10 км 8/4 600 м
[Cb calv Ac cuf]
+27.1 +17.0 54 +31 +32 душно 1020.0 852.3 +17.0 +27.1
Ю 3 10 км 5/5 750 м
[Ac]
+20.0 +18.0 88 +23 +27 комфорт 1021.0 858.3
Ю 4 10 км 8/8 690 м
[Ac]
+22.0 +18.0 78 +27 +29 душно 1021.0 859.3
ЮВ 3 10 км 8/8 600 м +23.0 +19.0 78 +29 +32 очень
душно
1020.0 859.1
ЮВ 4 10 км 8/8 690 м +25.0 +17.0 61 +29 +31 душно 1019.0 859.1
ЮВ 3 10 км 5/5 690 м +25.0 +16.0 57 +28 +36 жарко 1018.0 858.2
СЗ 4 10 км 9/6 700 м
[Cb cap Ac trans]
+23.5 +16.9 66 +27 +29 душно 1017.0 849.3
СЗ 5 10 км 8/8 690 м +24.0 +17.0 65 +28 +29 душно 1016.0 856.1
Местоположение метеостанции Кигали (Руанда): широта -1.97 долгота 30.14 высота над уровнем моря 1481 м.
В архиве по умолчанию представлена погода в Кигали за последнюю неделю. Архивные данные за месяц целиком и за предыдущие месяцы, начиная с января 2011 года, Вы можете получить, выбрав интересующий диапазон дат из раскрывающегося списка и нажав кнопку "Найти!".
*Определитесь, кто Вы:
Внимание! Время в таблицах - всемирное. Для получения местного времени необходимо прибавить поправку, которая равна 2 ч.
Смотрите также архив погоды в соседних городах и на ближайших метеорологических станциях:
Партнеры нашего сайта:      
Пояснения к столбцам:
  • Ветер - указаны скорость ветра в м/с - средняя за 10 мин, порывы в срок и между сроками (в фигурных скобках) и направление, откуда дует ветер: С - северный,
  • СВ - северо-восточный, В - восточный, ЮВ - юго-восточный, Ю - южный, ЮЗ - юго-западный, З - западный, СЗ - северо-западный.
  • Видимость - горизонтальная дальность видимости в метрах или километрах. При видимости от 1 до 10 км при отсутствии осадков обычно наблюдается дымка, при ухудшении видимости до 1 км и менее - туман. В сухую погоду видимость может ухудшаться дымом, пылью или мглою.
  • Явления - указаны атмосферные явления, наблюдавшиеся в срок или в последний час перед сроком; фигурными скобками обозначены явления, наблюдавшиеся между сроками (за 1-3 часа до срока); квадратными скобками обозначены град или гололедные отложения с указанием их диаметра в мм.
  • Облачность - указаны через наклонную черту общая и нижняя облачность в баллах и высота нижней границы облаков в метрах; квадратными скобками обозначены формы облаков: Ci - перистые, Cs - перисто-слоистые, Cc - перисто-кучевые, Ac - высококучевые, As - высокослоистые, Sc - слоисто-кучевые, Ns - слоисто-дождевые, Cu - кучевые, Cb - кучево-дождевые. Подробнее классификацию облаков см. в Атласе облаков (PDF).
  • T - Температура воздуха - температура, измеренная на высоте 2 м над землей.
  • Td - Температура точки росы - температура, при понижении до которой содержащийся в воздухе водяной пар достигнет насыщения.
  • f - Относительная влажность воздуха - влажноcть воздуха, измеренная на высоте 2 м над землей.
  • Te - Эффективная температура - температура, которую ощущает одетый по сезону человек в тени. Характеристика душности погоды. При расчете учитывается влияние влажности воздуха и скорости ветра на теплоощущения человека.
  • Tes - Эффективная температура на солнце - температура, которую ощущает человек, с поправкой на солнечный нагрев. Характеристика знойности погоды. Зависит от высоты солнца над горизонтом, облачности и скорости ветра. Ночью, в пасмурную погоду, а также при ветре 12 м/с и более поправка равна нулю.
  • P - Атмосферное давление - приведенное к уровню моря атмосферное давление.
  • Po - Атмосферное давление - измеренное на уровне метеостанции атмосферное давление.
  • Tmin - Минимальная температура - минимум температуры воздуха на высоте 2 м над землей.
  • Tmax - Максимальная температура - максимум температуры воздуха на высоте 2 м над землей.
  • R - Количество осадков - Количество выпавших осадков за период времени, мм. При наведении курсора мыши на число - период времени, за который выпало указанное количество осадков.
  • R24 - Количество осадков - Количество выпавших осадков за 24 часа, мм.
  • S - Снежный покров - Высота снежного покрова, см. При наведении курсора мыши на число - состояние снежного покрова и степень покрытия местности в баллах.